Miscellaneous Local Product
Issued by NWS Hastings, NE

Home | Current Version | Previous Version | Text Only | Print | Product List | Glossary Off
Versions: 1 2 3 4 5 6 7 8 9 10 11 12 13 14 15 16 17 18 19 20 21 22 23 24 25 26 27 28 29 30 31 32 33 34 35 36 37 38 39 40 41 42 43 44 45 46 47 48 49 50

000
AXUS43 KGID 012302
MISGRI

GID CWA HOURLY WEATHER ROUNDUP
NATIONAL WEATHER SERVICE HASTINGS NE
600 PM CDT SUN MAY 01 2016

NOTE: "FAIR" INDICATES FEW OR NO CLOUDS BELOW 12,000 FEET WITH NO
SIGNIFICANT WEATHER AND/OR OBSTRUCTIONS TO VISIBILITY.

...SOUTH CENTRAL NEBRASKA...

CITY           SKY/WX    TMP DP  RH WIND       PRES   REMARKS
GRAND ISLAND   CLOUDY    50  39  66 N16       30.16S
HASTINGS       CLOUDY    49  40  71 NE14      30.16R
KEARNEY        CLOUDY    48  37  66 NE18      30.17S
ORD            PTSUNNY   54  39  57 N14       30.15S
YORK           CLOUDY    48  43  81 N15G21    30.14R
AURORA         CLOUDY    48  43  84 N14       30.16R
LEXINGTON      PTSUNNY   53  39  60 NE12      30.17S
HOLDREGE       CLOUDY    49  40  70 NE15      30.17R
HEBRON         CLOUDY    47  41  80 N8        30.17R

...NEBRASKA PANHANDLE...

CITY           SKY/WX    TMP DP  RH WIND       PRES   REMARKS
CHADRON        SUNNY     56  30  37 NE15      30.21F
ALLIANCE       SUNNY     45  34  65 W6        30.21F
SCOTTSBLUFF    PTSUNNY   54  30  40 N14G21    30.24F
SIDNEY         SUNNY     45  28  51 NE10      30.24F

...WESTERN AND NORTH CENTRAL NEBRASKA...

CITY           SKY/WX    TMP DP  RH WIND       PRES   REMARKS
VALENTINE      MOSUNNY   55  30  38 N15       30.19F
AINSWORTH      MOSUNNY   55  32  42 N21G26    30.18F
ONEILL         PTSUNNY   55  35  45 N10G16    30.18S
BROKEN BOW     PTSUNNY   54  35  48 N16G23    30.16S
IMPERIAL       PTSUNNY   49  32  52 N18G25    30.22R
NORTH PLATTE   CLOUDY    54  33  45 N9        30.18F
MCCOOK         CLOUDY    53  35  50 NE8       30.19R

...EASTERN NEBRASKA...

CITY           SKY/WX    TMP DP  RH WIND       PRES   REMARKS
NORFOLK        CLOUDY    53  41  63 N12       30.13F
SO SIOUX CITY  CLOUDY    55  40  56 N15       30.13F
TEKAMAH        CLOUDY    51  44  77 N17       30.12S
COLUMBUS       CLOUDY    52  37  58 N16       30.15S
ALBION         CLOUDY    50  41  70 N7        30.15S
OMAHA EPPLEY   PTSUNNY   49  43  80 N8        30.11S
OFFUTT AFB     CLOUDY    48  43  81 N8        30.10S
MILLARD        CLOUDY    49  42  78 N6        30.12S
LINCOLN        CLOUDY    49  41  74 NE13      30.14F
NEBRASKA CITY  CLOUDY    48  43  84 N8        30.12R
BEATRICE       CLOUDY    47  42  84 N12G17    30.14R
FALLS CITY     CLOUDY    50  43  77 N13G26    30.09R

...NORTHERN KANSAS...

CITY           SKY/WX    TMP DP  RH WIND       PRES   REMARKS
GOODLAND       CLOUDY    52  30  43 N17G29    30.19F
HILL CITY      CLOUDY    51  39  63 NE13      30.19R
NORTON         CLOUDY    48  37  66 NE7       30.19R
PHILLIPSBURG   CLOUDY    50  39  66 N13       30.19R
SMITH CENTER   CLOUDY    45  39  81 N10       30.18S
BELOIT         CLOUDY    46  39  76 N14       30.17R
HAYS           CLOUDY    48  34  57 N10       30.17F
RUSSELL        CLOUDY    48  40  73 NE13      30.16S
CONCORDIA      CLOUDY    48  40  73 N13       30.15R
SALINA         CLOUDY    52  42  69 N14       30.15R
TOPEKA         CLOUDY    53  45  74 NW10      30.10R



USA.gov is the U.S. government's official web portal to all federal, state and local government web resources and services.